Погода в Солодовке

Россия / Волгоградская область     48°40′28″N   45°23′30″E
темп.,
°C
ветер,
м/с
пор.,
м/с
влажн.,
%
обл.,
%
осадки,
мм/ч
давл.,
гПа
погр.,
м
16 октября, сб
сб1600:00+12св3543100 0.0 1024104
03:00+11всв4848100 0.0 1023173
06:00+10всв4953100 0.0 1023216
09:00+12всв6845100 0.0 1023385
12:00+16в5643100 0.0 1022801
15:00+17в6742100 0.0 1020835
18:00+14всв485277 0.0 1019167
21:00+13в4847100 0.0 1018139
17 октября, вс
вс1700:00+13в4635100 0.0 1017118
03:00+13вюв2235100 0.0 101721
06:00+12вюв3534100 0.0 1016106
09:00+15юв4529100 0.0 1016270
12:00+18вюв4529100 0.0 1015567
15:00+19юв2331100 0.0 1014781
18:00+16в2331100 0.0 101435
21:00+14в333796 0.1 101325
18 октября, пн
пн1800:00+15юв2242100 0.0 101332
03:00+14ю1149100 0.0 101218
06:00+14с2347100 0.0 101259
09:00+14с3346100 0.0 1013180
12:00+15ссз4442100 0.0 1013422
15:00+15с454288 0.0 1012476
18:00+12ссв225564 0.0 101311
21:00+14з355293 0.0 1013112
19 октября, вт
вт1900:00+11ссз356579 0.0 101478
03:00+10сз236893 0.0 101427
06:00+10сз2462100 0.0 1014135
09:00+11зсз4553100 0.0 1014394
12:00+14зсз6741100 0.0 10141467
15:00+13зсз6740100 0.0 10141678
18:00+10сз5759100 0.0 1015526
21:00+9сз4761100 0.0 1015752
20 октября, ср
ср2000:00+8зсз366995 0.0 1015198
03:00+5ссз357498 0.0 101694
06:00+5ссз3478100 0.0 101787
09:00+7ссз575777 0.0 1019520
12:00+10ссз774690 0.1 10191762
15:00+8ссз884696 0.2 10211518
18:00+6ссз59525 0.0 1024357
21:00+4сз49585 0.0 1026206